Location: Carrières
(48.9495°N, 2.0407°E)
Time: 15:10:02
(UTC+00:00)

Okean O Rocket - Pass Details

Date: 28 January 2023
Orbit: 620 x 643 km, 98.1° (Epoch: 26 March)

Event Time Altitude Azimuth Distance (km) Brightness Sun altitude
Rises 17:10:37 0° 105° (ESE) 2,916 4.5 -5.1°
Reaches altitude 10° 17:14:25 10° 71° (ENE) 2,021 3.5 -5.7°
Maximum altitude 17:15:40 11° 54° (NE) 1,950 3.5 -5.9°
Drops below altitude 10° 17:16:56 10° 37° (NE) 2,029 3.7 -6.0°
Sets 17:20:46 0° 4° (N) 2,951 4.8 -6.6°
